Wendover, UT

11:33 AM MST on January 17, 2017 (GMT -0700)
Wendover

Weather History for KENV - May, 2014

Change the Weather History Date:

Thursday, May 29, 2014

  Actual Average Record
Temperature  
Mean Temperature 63 °F -  
Max Temperature 73 °F 76 °F 96 °F (2003)
Min Temperature 53 °F 54 °F 39 °F (2006)
Degree Days  
Heating Degree Days 2    
Growing Degree Days 13 (Base 50)    
Moisture  
Dew Point 19 °F    
Average Humidity 18    
Maximum Humidity 24    
Minimum Humidity 13    
Precipitation  
Precipitation 0.00 in - - ()
Sea Level Pressure  
Sea Level Pressure 30.04 in    
Wind  
Wind Speed 15 mph (NE)    
Max Wind Speed 33 mph    
Max Gust Speed 45 mph    
Visibility 10 miles    
Events      
Averages and records for this station are not official NWS values.
T = Trace of Precipitation, MM = Missing Value Source: NWS Daily Summary

Daily Weather History Graph

Daily Weather History Graph

Search for Another Location

Airport or City:

Trip Planner

Search our weather history database for the weather conditions in past years. The results will help you decide how hot, cold, wet, or windy it might be!

Date:

Astronomy

May. 29, 2014 Rise Set
Actual Time 6:08 AM MDT 8:58 PM MDT
Civil Twilight 5:36 AM MDT 9:31 PM MDT
Nautical Twilight 4:55 AM MDT 10:12 PM MDT
Astronomical Twilight 4:08 AM MDT 10:59 PM MDT
Moon 7:05 AM MDT (5/29) 9:52 PM MDT (5/29)
Length of Visible Light 15h 55m
Length of Day
14h 50m
New Moon, 1% of the Moon is Illuminated
May 29
New Moon
Jun 5
First Quarter
Jun 12
Full
Jun 19
Last Quarter
Jun 27
New

Hourly Weather History & Observations

Time (MDT) Temp. Dew Point Humidity Pressure Visibility Wind Dir Wind Speed Gust Speed Precip Events Conditions
12:15 AM 64.4 °F 26.6 °F 24% 29.89 in 10.0 mi NNW 27.6 mph 38.0 mph N/A   Clear
12:35 AM 64.4 °F 24.8 °F 22% 29.90 in 10.0 mi NW 26.5 mph 41.4 mph N/A   Clear
12:55 AM 64.4 °F 24.8 °F 22% 29.91 in 10.0 mi NNW 27.6 mph 35.7 mph N/A   Clear
1:15 AM 62.6 °F 24.8 °F 24% 29.92 in 10.0 mi NNW 33.4 mph 43.7 mph N/A   Clear
1:35 AM 62.6 °F 23.0 °F 22% 29.93 in 10.0 mi NW 28.8 mph 41.4 mph N/A   Clear
1:55 AM 60.8 °F 21.2 °F 22% 29.93 in 10.0 mi NW 33.4 mph 42.6 mph N/A   Clear
2:15 AM 60.8 °F 21.2 °F 22% 29.94 in 10.0 mi NNW 32.2 mph 44.9 mph N/A   Clear
2:35 AM 60.8 °F 19.4 °F 20% 29.97 in 10.0 mi NNW 21.9 mph 43.7 mph N/A   Clear
2:55 AM 60.8 °F 19.4 °F 20% 29.99 in 10.0 mi SE 5.8 mph - N/A   Clear
3:15 AM 60.8 °F 17.6 °F 19% 29.98 in 10.0 mi NNW 16.1 mph 31.1 mph N/A   Clear
3:35 AM 57.2 °F 17.6 °F 21% 29.98 in 10.0 mi NNW 13.8 mph 32.2 mph N/A   Clear
3:55 AM 57.2 °F 17.6 °F 21% 30.02 in 10.0 mi ENE 10.4 mph - N/A   Clear
4:15 AM 57.2 °F 17.6 °F 21% 30.02 in 10.0 mi SE 8.1 mph - N/A   Clear
4:35 AM 57.2 °F 17.6 °F 21% 30.02 in 10.0 mi NNW 17.3 mph 26.5 mph N/A   Clear
4:55 AM 57.2 °F 17.6 °F 21% 30.03 in 10.0 mi East 6.9 mph 23.0 mph N/A   Clear
5:15 AM 55.4 °F 17.6 °F 23% 30.05 in 10.0 mi West 10.4 mph - N/A   Clear
5:35 AM 55.4 °F 17.6 °F 23% 30.05 in 10.0 mi SSW 6.9 mph - N/A   Clear
5:55 AM 55.4 °F 17.6 °F 23% 30.05 in 10.0 mi East 10.4 mph 27.6 mph N/A   Clear
6:15 AM 55.4 °F 17.6 °F 23% 30.08 in 10.0 mi North 11.5 mph 17.3 mph N/A   Clear
6:35 AM 53.6 °F 17.6 °F 24% 30.07 in 10.0 mi West 8.1 mph - N/A   Clear
6:55 AM 55.4 °F 17.6 °F 23% 30.08 in 10.0 mi Calm Calm - N/A   Clear
7:15 AM 55.4 °F 15.8 °F 21% 30.09 in 10.0 mi NNE 4.6 mph - N/A   Clear
7:35 AM 53.6 °F 15.8 °F 22% 30.10 in 10.0 mi NNW 8.1 mph 18.4 mph N/A   Clear
7:55 AM 55.4 °F 15.8 °F 21% 30.10 in 10.0 mi North 4.6 mph - N/A   Clear
8:15 AM 55.4 °F 17.6 °F 23% 30.11 in 10.0 mi North 16.1 mph 20.7 mph N/A   Clear
8:35 AM 55.4 °F 17.6 °F 23% 30.11 in 10.0 mi NW 15.0 mph 18.4 mph N/A   Clear
8:55 AM 57.2 °F 17.6 °F 21% 30.11 in 10.0 mi NW 17.3 mph 20.7 mph N/A   Clear
9:15 AM 57.2 °F 17.6 °F 21% 30.11 in 10.0 mi NW 12.7 mph - N/A   Clear
9:35 AM 60.8 °F 17.6 °F 19% 30.11 in 10.0 mi North 4.6 mph - N/A   Clear
9:55 AM 60.8 °F 17.6 °F 19% 30.11 in 10.0 mi North 8.1 mph 23.0 mph N/A   Clear
10:15 AM 60.8 °F 15.8 °F 17% 30.11 in 10.0 mi NW 18.4 mph 21.9 mph N/A   Clear
10:35 AM 62.6 °F 15.8 °F 16% 30.11 in 10.0 mi NW 16.1 mph 20.7 mph N/A   Clear
10:55 AM 64.4 °F 15.8 °F 15% 30.11 in 10.0 mi North 6.9 mph 21.9 mph N/A   Clear
11:15 AM 64.4 °F 17.6 °F 16% 30.11 in 10.0 mi East 4.6 mph - N/A   Clear
11:35 AM 64.4 °F 17.6 °F 16% 30.11 in 10.0 mi NE 10.4 mph - N/A   Clear
11:55 AM 66.2 °F 17.6 °F 15% 30.11 in 10.0 mi ENE 9.2 mph - N/A   Clear
12:35 PM 66.2 °F 17.6 °F 15% 30.11 in 10.0 mi NNE 4.6 mph - N/A   Clear
12:55 PM 69.8 °F 19.4 °F 15% 30.10 in 10.0 mi ESE 9.2 mph - N/A   Clear
1:15 PM 69.8 °F 19.4 °F 15% 30.10 in 10.0 mi SE 6.9 mph - N/A   Clear
1:35 PM 69.8 °F 17.6 °F 14% 30.09 in 10.0 mi ESE 11.5 mph 16.1 mph N/A   Clear
1:55 PM 69.8 °F 19.4 °F 15% 30.09 in 10.0 mi ESE 10.4 mph - N/A   Clear
2:15 PM 69.8 °F 19.4 °F 15% 30.09 in 10.0 mi SE 12.7 mph - N/A   Clear
2:35 PM 69.8 °F 19.4 °F 15% 30.09 in 10.0 mi SE 9.2 mph - N/A   Clear
3:15 PM 69.8 °F 19.4 °F 15% 30.08 in 10.0 mi SSE 8.1 mph - N/A   Clear
3:35 PM 71.6 °F 19.4 °F 14% 30.07 in 10.0 mi SSE 8.1 mph - N/A   Clear
4:15 PM 73.4 °F 19.4 °F 13% 30.06 in 10.0 mi SE 8.1 mph - N/A   Clear
4:35 PM 73.4 °F 21.2 °F 14% 30.05 in 10.0 mi East 5.8 mph - N/A   Clear
4:55 PM 73.4 °F 21.2 °F 14% 30.04 in 10.0 mi ESE 8.1 mph - N/A   Clear
5:15 PM 71.6 °F 19.4 °F 14% 30.03 in 10.0 mi SE 4.6 mph - N/A   Clear
5:35 PM 73.4 °F 19.4 °F 13% 30.02 in 10.0 mi East 8.1 mph - N/A   Clear
5:55 PM 73.4 °F 19.4 °F 13% 30.02 in 10.0 mi East 6.9 mph - N/A   Clear
6:15 PM 73.4 °F 19.4 °F 13% 30.02 in 10.0 mi SE 5.8 mph - N/A   Clear
6:35 PM 73.4 °F 19.4 °F 13% 30.01 in 10.0 mi East 6.9 mph - N/A   Clear
6:55 PM 73.4 °F 19.4 °F 13% 30.00 in 10.0 mi East 6.9 mph - N/A   Clear
7:15 PM 73.4 °F 19.4 °F 13% 30.00 in 10.0 mi East 6.9 mph - N/A   Clear
7:35 PM 73.4 °F 19.4 °F 13% 30.00 in 10.0 mi East 6.9 mph - N/A   Clear
7:55 PM 73.4 °F 19.4 °F 13% 30.01 in 10.0 mi East 5.8 mph - N/A   Clear
8:15 PM 71.6 °F 19.4 °F 14% 30.01 in 10.0 mi ENE 4.6 mph - N/A   Clear
8:35 PM 71.6 °F 19.4 °F 14% 30.00 in 10.0 mi East 5.8 mph - N/A   Clear
8:55 PM 71.6 °F 19.4 °F 14% 30.01 in 10.0 mi ESE 4.6 mph - N/A   Clear
9:15 PM 69.8 °F 19.4 °F 15% 30.01 in 10.0 mi SE 4.6 mph - N/A   Clear
9:35 PM 69.8 °F 21.2 °F 16% 30.01 in 10.0 mi Calm Calm - N/A   Clear
9:55 PM 66.2 °F 21.2 °F 18% 30.02 in 10.0 mi West 6.9 mph - N/A   Clear
10:15 PM 66.2 °F 21.2 °F 18% 30.02 in 10.0 mi West 5.8 mph - N/A   Clear
10:35 PM 66.2 °F 21.2 °F 18% 30.02 in 10.0 mi West 6.9 mph - N/A   Clear
10:55 PM 66.2 °F 19.4 °F 17% 30.03 in 10.0 mi NW 6.9 mph - N/A   Clear
11:15 PM 66.2 °F 19.4 °F 17% 30.04 in 10.0 mi NNW 6.9 mph - N/A   Clear
11:35 PM 66.2 °F 21.2 °F 18% 30.04 in 10.0 mi North 10.4 mph - N/A   Clear
11:55 PM 66.2 °F 21.2 °F 18% 30.04 in 10.0 mi North 11.5 mph 17.3 mph N/A   Clear